Hourly Weather Neuquén

Today, 25 September, Friday

Time Temperature Precipitation Wind Pressure Humidity
00:00 +16°C° 0 mm 2 mps 733 mmHg 20%
01:00 +15°C° 0 mm 1 mps 733 mmHg 21%
02:00 +15°C° 0 mm 1 mps 733 mmHg 22%
03:00 +14°C° 0 mm 1 mps 732 mmHg 23%
04:00 +13°C° 0 mm 1 mps 732 mmHg 24%
05:00 +15°C° 0 mm 1 mps 732 mmHg 22%
06:00 +18°C° 0 mm 1 mps 733 mmHg 19%
07:00 +21°C° 0 mm 1 mps 733 mmHg 16%
08:00 +22°C° 0 mm 1 mps 733 mmHg 14%
09:00 +24°C° 0 mm 2 mps 733 mmHg 13%
10:00 +26°C° 0 mm 2 mps 733 mmHg 11%
11:00 +27°C° 0 mm 2 mps 732 mmHg 10%
12:00 +28°C° 0 mm 3 mps 732 mmHg 10%
13:00 +29°C° 0 mm 3 mps 731 mmHg 9%
14:00 +29°C° 0 mm 3 mps 731 mmHg 9%
15:00 +29°C° 0 mm 3 mps 730 mmHg 9%
16:00 +29°C° 0 mm 3 mps 730 mmHg 9%
17:00 +27°C° 0 mm 3 mps 730 mmHg 10%
18:00 +25°C° 0 mm 3 mps 731 mmHg 12%
19:00 +22°C° 0 mm 3 mps 731 mmHg 13%
20:00 +22°C° 0 mm 3 mps 731 mmHg 25%
21:00 +21°C° 0 mm 4 mps 731 mmHg 38%
22:00 +20°C° 0 mm 4 mps 732 mmHg 50%
23:00 +19°C° 0.1 mm 4 mps 731 mmHg 47%

Tomorrow, 26 September, Saturday

Time Temperature Precipitation Wind Pressure Humidity
00:00 +19°C° 0.1 mm 4 mps 731 mmHg 43%
01:00 +18°C° 0.1 mm 4 mps 731 mmHg 39%
02:00 +17°C° 0 mm 5 mps 731 mmHg 40%
03:00 +16°C° 0 mm 7 mps 731 mmHg 42%
04:00 +16°C° 0 mm 9 mps 731 mmHg 43%
05:00 +16°C° 0 mm 8 mps 732 mmHg 42%
06:00 +17°C° 0 mm 8 mps 732 mmHg 42%
07:00 +17°C° 0 mm 8 mps 732 mmHg 41%
08:00 +18°C° 0 mm 8 mps 732 mmHg 38%
09:00 +20°C° 0 mm 8 mps 732 mmHg 36%
10:00 +21°C° 0 mm 8 mps 731 mmHg 33%
11:00 +21°C° 0 mm 8 mps 731 mmHg 30%
12:00 +22°C° 0 mm 8 mps 731 mmHg 27%
13:00 +23°C° 0 mm 7 mps 730 mmHg 24%
14:00 +22°C° 0 mm 8 mps 730 mmHg 25%
15:00 +22°C° 0 mm 8 mps 730 mmHg 25%
16:00 +22°C° 0 mm 8 mps 730 mmHg 25%
17:00 +21°C° 0 mm 9 mps 731 mmHg 27%
18:00 +19°C° 0 mm 10 mps 731 mmHg 29%
19:00 +18°C° 0 mm 10 mps 732 mmHg 31%
20:00 +17°C° 0 mm 10 mps 732 mmHg 32%
21:00 +17°C° 0 mm 11 mps 733 mmHg 34%
22:00 +16°C° 0 mm 11 mps 733 mmHg 35%
23:00 +14°C° 0 mm 10 mps 733 mmHg 37%

Day after tomorrow, 27 September, Sunday

Time Temperature Precipitation Wind Pressure Humidity
00:00 +13°C° 0 mm 9 mps 733 mmHg 39%
01:00 +13°C° 0 mm 9 mps 733 mmHg 41%
02:00 +12°C° 0 mm 8 mps 734 mmHg 44%
03:00 +11°C° 0 mm 8 mps 734 mmHg 46%
04:00 +11°C° 0 mm 7 mps 735 mmHg 48%
05:00 +11°C° 0 mm 7 mps 735 mmHg 46%
06:00 +13°C° 0 mm 6 mps 735 mmHg 44%
07:00 +13°C° 0 mm 6 mps 736 mmHg 42%
08:00 +14°C° 0 mm 5 mps 736 mmHg 37%
09:00 +17°C° 0 mm 3 mps 736 mmHg 33%
10:00 +18°C° 0 mm 2 mps 736 mmHg 28%
11:00 +19°C° 0 mm 2 mps 736 mmHg 26%
12:00 +20°C° 0 mm 3 mps 735 mmHg 23%
13:00 +21°C° 0 mm 3 mps 735 mmHg 20%
14:00 +21°C° 0 mm 3 mps 734 mmHg 20%
15:00 +21°C° 0 mm 3 mps 734 mmHg 19%
16:00 +21°C° 0 mm 3 mps 733 mmHg 18%
17:00 +19°C° 0 mm 3 mps 733 mmHg 20%
18:00 +18°C° 0 mm 2 mps 733 mmHg 22%
19:00 +16°C° 0 mm 2 mps 733 mmHg 24%
20:00 +16°C° 0 mm 2 mps 733 mmHg 26%
21:00 +15°C° 0 mm 1 mps 733 mmHg 28%
22:00 +14°C° 0 mm 1 mps 733 mmHg 30%
23:00 +13°C° 0 mm 1 mps 732 mmHg 30%

28 September, Monday

Time Temperature Precipitation Wind Pressure Humidity
00:00 +13°C° 0 mm 1 mps 732 mmHg 30%
01:00 +13°C° 0 mm 2 mps 731 mmHg 29%
02:00 +12°C° 0 mm 2 mps 731 mmHg 30%
03:00 +12°C° 0 mm 2 mps 731 mmHg 31%
04:00 +10°C° 0 mm 2 mps 730 mmHg 32%
05:00 +13°C° 0 mm 2 mps 730 mmHg 31%
06:00 +15°C° 0 mm 2 mps 730 mmHg 29%
07:00 +16°C° 0 mm 2 mps 730 mmHg 28%
08:00 +18°C° 0 mm 2 mps 729 mmHg 26%
09:00 +20°C° 0 mm 3 mps 729 mmHg 23%
10:00 +22°C° 0 mm 3 mps 729 mmHg 21%
11:00 +24°C° 0 mm 3 mps 728 mmHg 19%
12:00 +24°C° 0 mm 3 mps 727 mmHg 16%
13:00 +25°C° 0 mm 3 mps 726 mmHg 14%
14:00 +26°C° 0 mm 3 mps 725 mmHg 13%
15:00 +26°C° 0 mm 4 mps 724 mmHg 12%
16:00 +26°C° 0 mm 5 mps 724 mmHg 11%
17:00 +25°C° 0 mm 4 mps 723 mmHg 12%
18:00 +22°C° 0 mm 4 mps 723 mmHg 14%
19:00 +20°C° 0 mm 4 mps 723 mmHg 15%
20:00 +19°C° 0 mm 6 mps 724 mmHg 18%
21:00 +17°C° 0 mm 8 mps 724 mmHg 21%
22:00 +16°C° 0 mm 10 mps 724 mmHg 24%
23:00 +14°C° 0 mm 10 mps 725 mmHg 28%

29 September, Tuesday

Time Temperature Precipitation Wind Pressure Humidity
00:00 +14°C° 0 mm 10 mps 725 mmHg 32%
01:00 +13°C° 0 mm 11 mps 725 mmHg 35%
02:00 +13°C° 0 mm 11 mps 725 mmHg 35%
03:00 +12°C° 0 mm 12 mps 725 mmHg 34%
04:00 +12°C° 0 mm 12 mps 725 mmHg 34%
05:00 +12°C° 0 mm 13 mps 725 mmHg 31%
06:00 +13°C° 0 mm 13 mps 725 mmHg 27%
07:00 +13°C° 0 mm 13 mps 725 mmHg 24%
08:00 +15°C° 0 mm 14 mps 725 mmHg 20%
09:00 +18°C° 0 mm 14 mps 725 mmHg 17%
10:00 +20°C° 0 mm 14 mps 725 mmHg 13%
11:00 +22°C° 0 mm 14 mps 725 mmHg 13%
12:00 +23°C° 0 mm 14 mps 724 mmHg 12%
13:00 +24°C° 0 mm 14 mps 724 mmHg 12%
14:00 +22°C° 0 mm 15 mps 724 mmHg 15%
15:00 +20°C° 0 mm 15 mps 724 mmHg 18%
16:00 +18°C° 0 mm 15 mps 725 mmHg 21%
17:00 +15°C° 0 mm 15 mps 726 mmHg 21%
18:00 +13°C° 0 mm 15 mps 727 mmHg 22%
19:00 +9°C° 0 mm 15 mps 728 mmHg 23%
20:00 +8°C° 0 mm 14 mps 729 mmHg 25%
21:00 +6°C° 0 mm 14 mps 730 mmHg 28%
22:00 +5°C° 0 mm 13 mps 730 mmHg 30%
23:00 +4°C° 0 mm 12 mps 731 mmHg 32%

30 September, Wednesday

Time Temperature Precipitation Wind Pressure Humidity
00:00 +4°C° 0 mm 11 mps 732 mmHg 34%
01:00 +3°C° 0 mm 9 mps 732 mmHg 37%
02:00 +3°C° 0 mm 9 mps 733 mmHg 36%
03:00 +2°C° 0 mm 8 mps 733 mmHg 36%
04:00 +3°C° 0 mm 7 mps 733 mmHg 35%
05:00 +2°C° 0 mm 9 mps 733 mmHg 33%
06:00 +3°C° 0 mm 11 mps 733 mmHg 31%
07:00 +4°C° 0 mm 12 mps 733 mmHg 29%
08:00 +7°C° 0 mm 13 mps 733 mmHg 26%
09:00 +8°C° 0 mm 13 mps 733 mmHg 23%
10:00 +10°C° 0 mm 14 mps 732 mmHg 19%
11:00 +11°C° 0 mm 15 mps 732 mmHg 18%
12:00 +13°C° 0 mm 15 mps 731 mmHg 17%
13:00 +14°C° 0 mm 16 mps 730 mmHg 16%
14:00 +14°C° 0 mm 16 mps 730 mmHg 17%
15:00 +13°C° 0 mm 17 mps 730 mmHg 18%
16:00 +12°C° 0 mm 18 mps 729 mmHg 19%
17:00 +10°C° 0 mm 16 mps 730 mmHg 23%
18:00 +9°C° 0 mm 15 mps 730 mmHg 26%
19:00 +8°C° 0 mm 13 mps 730 mmHg 29%
20:00 +7°C° 0 mm 12 mps 730 mmHg 33%
21:00 +6°C° 0 mm 11 mps 731 mmHg 37%
22:00 +6°C° 0 mm 9 mps 731 mmHg 41%
23:00 +5°C° 0 mm 9 mps 732 mmHg 43%
Show more